Location: Unspecified
(0.0000°N, 0.0000°E)
Time: 12:15:46
(UTC+00:00)

Tiangong - Visible Passes

Search period start: 26 September 2023 00:00
Search period end: 06 October 2023 00:00
Orbit: 373 x 384 km, 41.5° (Epoch: 26 September)

Date Brightness Start Highest point End Pass type
(mag) Time Alt. Az. Time Alt. Az. Time Alt. Az.
26 Sep 0.9 04:05:00 13° NE 04:05:00 13° NE 04:06:17 10° ENE visible
27 Sep -2.4 04:39:33 65° WNW 04:39:55 84° SW 04:43:02 10° SE visible
28 Sep 0.1 05:13:56 10° WSW 05:15:00 11° SW 05:16:03 10° SSW visible
29 Sep 0.8 04:16:01 11° SSE 04:16:01 11° SSE 04:16:09 10° SSE visible
